Miscellaneous Local Product
Issued by NWS North Platte, NE

Home | Current Version | Previous Version | Text Only | Print | Product List | Glossary On
Versions: 1 2 3 4 5 6 7 8 9 10 11 12 13 14 15 16 17 18 19 20 21 22 23 24 25 26 27 28 29 30 31 32 33 34 35 36 37 38 39 40 41 42 43 44 45 46 47 48 49 50
017
AXUS43 KLBF 211810
MISLBF


WESTERN AND NORTH CENTRAL NEBRASKA HOURLY WEATHER ROUNDUP
NATIONAL WEATHER SERVICE NORTH PLATTE NE
100 PM CDT MON AUG 21 2017

NOTE: "FAIR" INDICATES FEW OR NO CLOUDS BELOW 12,000 FEET WITH NO
SIGNIFICANT WEATHER AND/OR OBSTRUCTIONS TO VISIBILITY.

NOTE: STATIONS NOT REPORTING VARIABLES SUCH AS SKY/WEATHER OR
PRESSURE ARE PROVIDED BY RAWS AND APRS NETWORKS AND ARE NOT UNDER
NATIONAL WEATHER SERVICE QUALITY CONTROL.

...OBSERVATIONS IN AND NEAR THE EASTERN PANHANDLE OF NEBRASKA...

CITY           SKY/WX    TMP DP  RH WIND       PRES   REMARKS
PINE RIDGE     PTSUNNY   70  60  70 N12       30.08R
GORDON         FAIR      69  61  74 N14G22    30.07R
CHADRON        SUNNY     72  53  51 N13G23    30.08R
ALLIANCE       MOSUNNY   71  61  70 N16G23    30.07R
SIDNEY         SUNNY     74  54  49 N16       30.09R
$$

...OBSERVATIONS IN NORTHERN NEBRASKA AND FAR SOUTHERN SOUTH DAKOTA...

CITY           SKY/WX    TMP DP  RH WIND       PRES   REMARKS
WINNER         FAIR      65  62  90 SW8       29.95R
VALENTINE      CLOUDY    66  61  84 E6        30.00F
THEDFORD       CLOUDY    76  68  74 N8        29.99S
AINSWORTH      CLOUDY    64  64  97 NE9       30.01R
O`NEILL        CLOUDY    74  72  92 NW20G26   29.99R
ORD            SUNNY     79  69  71 CALM      29.92R
BROKEN BOW     SUNNY     83  67  58 SW7       29.93R
VALENTINE NWR    N/A     73  72  96 CALM        N/A
HALSEY           N/A     76  68  77 NW6         N/A
BUTTE            N/A     63  62  95 NE6         N/A
CHAMBERS         N/A     78  70  76 W3          N/A
EWING            N/A     78  72  83 S6          N/A
$$

...OBSERVATIONS IN SOUTHWEST NEBRASKA AND FAR NORTHEAST COLORADO...

CITY           SKY/WX    TMP DP  RH WIND       PRES   REMARKS
HOLYOKE        FAIR      77  68  73 N8        30.01F
IMPERIAL       SUNNY     79  64  60 NW3       29.97F
OGALLALA       SUNNY     75  68  78 N3        29.99S
NORTH PLATTE   SUNNY     79  70  74 W5        29.94S
MCCOOK         MOSUNNY   80  62  54 S14       29.95S
LEXINGTON      SUNNY     79  65  63 S7        29.94R
STAPLETON        N/A     77  70  78 CALM        N/A
GOTHENBURG       N/A     84  62  46 S7          N/A
CALLAWAY         N/A     83  72  69 SW7         N/A
$$

...OBSERVATIONS IN CENTRAL LINCOLN COUNTY AREA...

CITY           SKY/WX    TMP DP  RH WIND       PRES   REMARKS
N.P. AIRPORT   SUNNY     79  70  74 W5        29.94S
N.P. DOWNTOWN    N/A     81  69  67 CALM        N/A
N.P. SOUTHEAST   N/A     82  69  63 CALM        N/A
N.P. HILLCREST   N/A     79  70  74 CALM        N/A
$$

...SOME OBSERVATIONS FROM AROUND THE REGION...

CITY           SKY/WX    TMP DP  RH WIND       PRES   REMARKS
DENVER         MOSUNNY   78  41  26 NE12      30.15S
LIMON          CLOUDY    74  49  41 N7        30.14S
ASPEN          SUNNY     69  40  34 NE3       30.33F
LARAMIE        SUNNY     68  36  30 N12       30.30S
CASPER         CLOUDY    66  36  32 NE7       30.22S
CHEYENNE       SUNNY     70  34  26 N16G24    30.22R
SCOTTSBLUFF    SUNNY     75  58  55 N10       30.09R
GRAND ISLAND   MOSUNNY   80  69  69 S13       29.94S
OMAHA          CLOUDY    78  67  68 SE17      29.96F
SIOUX FALLS    TSTM      69  69 100 NE9       29.93F
PIERRE         CLOUDY    63  61  93 NW8       29.96F
RAPID CITY     SUNNY     69  49  48 N16       30.10R
BISMARCK       SUNNY     70  57  63 W8        29.97F
KANSAS CITY    PTSUNNY   77  70  79 S5        30.05F
HILL CITY      CLOUDY    81  64  56 S9        29.97F
WICHITA        MOSUNNY   87  71  58 S10       30.01F HX  93
DODGE CITY     CLOUDY    78  63  59 S21G28    30.04F
OKLAHOMA CITY  MOSUNNY   86  69  56 S12       30.06F HX  90
DALLAS         MOSUNNY   91  70  49 S7        30.05F HX  96
AMARILLO       PTSUNNY   76  65  68 S13       30.15F
$$




USA.gov is the U.S. government's official web portal to all federal, state and local government web resources and services.